Daviess Cnty AP, Washington,, IN

11:10 AM EST on December 15, 2019 (GMT -0500)
Daviess County

Weather History for KDCY - May, 2019

Change the Weather History Date:

Thursday, May 9, 2019

  Actual Average (KLWV) Record (KLWV)
Temperature  
Mean Temperature 66 °F -  
Max Temperature 74 °F 73 °F 88 °F (1993)
Min Temperature 58 °F 52 °F 44 °F (1992)
Cooling Degree Days 2    
Growing Degree Days 16 (Base 50)    
Moisture  
Dew Point 63 °F    
Average Humidity 80    
Maximum Humidity 100    
Minimum Humidity 63    
Precipitation  
Precipitation 0.08 in - - ()
Sea Level Pressure  
Sea Level Pressure 29.83 in    
Wind  
Wind Speed 11 mph (SSW)    
Max Wind Speed 22 mph    
Max Gust Speed 30 mph    
Visibility 10 miles    
Events Rain    
Averages and records for this station are not official NWS values.
T = Trace of Precipitation, MM = Missing Value Source: NWS Daily Summary

Daily Weather History Graph

Daily Weather History Graph

Search for Another Location

Airport or City:

Astronomy

May. 09, 2019 Rise Set
Actual Time 6:42 AM EDT 8:48 PM EDT
Civil Twilight 6:13 AM EDT 9:17 PM EDT
Nautical Twilight 5:37 AM EDT 9:53 PM EDT
Astronomical Twilight 4:58 AM EDT 10:32 PM EDT
Moon 10:38 AM EDT (5/9) 12:46 AM EDT (5/9)
Length of Visible Light 15h 04m
Length of Day
14h 05m
Waxing Crescent, 24% of the Moon is Illuminated
May 9
Waxing Crescent
May 11
First Quarter
May 18
Full
May 26
Last Quarter
Jun 3
New

Hourly Weather History & Observations

Time (EDT) Temp. Dew Point Humidity Pressure Visibility Wind Dir Wind Speed Gust Speed Precip Events Conditions
12:15 AM 72.1 °F 63.1 °F 73% 29.79 in 10.0 mi SSE 9.2 mph - N/A   Clear
12:35 AM 72.7 °F 63.0 °F 71% 29.79 in 10.0 mi SSE 10.4 mph - N/A   Clear
12:55 AM 73.6 °F 62.6 °F 68% 29.79 in 10.0 mi SSE 11.5 mph - N/A   Clear
1:15 AM 73.4 °F 62.4 °F 68% 29.79 in 10.0 mi SSE 12.7 mph - N/A   Clear
1:35 AM 73.9 °F 62.1 °F 66% 29.79 in 10.0 mi South 13.8 mph - N/A   Clear
1:55 AM 73.6 °F 62.1 °F 67% 29.79 in 10.0 mi South 12.7 mph - N/A   Clear
2:15 AM 73.4 °F 61.9 °F 67% 29.79 in 10.0 mi South 12.7 mph - N/A   Clear
2:35 AM 73.6 °F 61.7 °F 66% 29.79 in 10.0 mi South 13.8 mph 18.4 mph N/A   Clear
2:55 AM 73.4 °F 61.9 °F 67% 29.78 in 10.0 mi South 12.7 mph - N/A   Clear
3:15 AM 73.0 °F 61.9 °F 68% 29.77 in 10.0 mi SSE 12.7 mph - N/A   Clear
3:35 AM 72.7 °F 61.9 °F 69% 29.77 in 10.0 mi South 11.5 mph - N/A   Scattered Clouds
3:55 AM 72.7 °F 62.1 °F 69% 29.76 in 10.0 mi South 10.4 mph - N/A   Overcast
4:15 AM 72.7 °F 62.1 °F 69% 29.75 in 10.0 mi South 11.5 mph - N/A   Overcast
4:35 AM 70.9 °F 63.3 °F 77% 29.75 in 10.0 mi South 8.1 mph - N/A Rain Light Rain
4:55 AM 69.6 °F 64.0 °F 82% 29.75 in 10.0 mi South 9.2 mph - 0.01 in Rain Rain
5:15 AM 70.3 °F 63.9 °F 80% 29.74 in 10.0 mi South 12.7 mph - N/A   Overcast
5:35 AM 70.7 °F 63.7 °F 78% 29.74 in 10.0 mi South 11.5 mph - N/A   Overcast
5:55 AM 70.5 °F 63.9 °F 79% 29.75 in 10.0 mi South 10.4 mph - N/A   Overcast
6:15 AM 70.9 °F 63.7 °F 78% 29.75 in 10.0 mi South 15.0 mph 18.4 mph N/A   Overcast
6:35 AM 71.1 °F 63.5 °F 77% 29.74 in 10.0 mi South 13.8 mph - N/A   Overcast
6:55 AM 71.6 °F 63.0 °F 74% 29.75 in 10.0 mi South 16.1 mph 20.7 mph N/A   Overcast
7:15 AM 72.1 °F 62.6 °F 72% 29.77 in 10.0 mi SSW 16.1 mph 25.3 mph N/A   Overcast
7:35 AM 72.3 °F 62.8 °F 72% 29.78 in 10.0 mi SSW 21.9 mph 29.9 mph N/A   Overcast
7:55 AM 71.6 °F 63.1 °F 75% 29.79 in 10.0 mi SW 18.4 mph 29.9 mph N/A   Overcast
8:15 AM 71.2 °F 63.5 °F 76% 29.80 in 10.0 mi SW 12.7 mph 25.3 mph N/A   Overcast
8:35 AM 71.1 °F 63.7 °F 77% 29.81 in 10.0 mi SW 17.3 mph 25.3 mph N/A   Overcast
8:55 AM 69.4 °F 64.4 °F 84% 29.81 in 5.0 mi SW 10.4 mph 20.7 mph N/A Rain Light Rain
9:15 AM 68.9 °F 65.1 °F 88% 29.82 in 10.0 mi SW 10.4 mph - N/A Rain Light Rain
9:35 AM 69.8 °F 64.6 °F 83% 29.82 in 10.0 mi SW 19.6 mph 24.2 mph N/A   Overcast
9:55 AM 68.9 °F 65.3 °F 88% 29.82 in 7.0 mi SSW 10.4 mph - N/A Rain Light Rain
10:15 AM 68.5 °F 66.2 °F 92% 29.82 in 10.0 mi SSW 9.2 mph - N/A   Overcast
10:35 AM 68.2 °F 66.6 °F 95% 29.83 in 10.0 mi SW 8.1 mph - N/A   Drizzle
10:55 AM 66.9 °F 66.6 °F 99% 29.84 in 3.0 mi SW 16.1 mph 21.9 mph 0.05 in Rain Rain
11:35 AM 68.0 °F 66.6 °F 95% 29.85 in 7.0 mi SW 12.7 mph - 0.02 in   Overcast
11:55 AM 68.2 °F 66.6 °F 95% 29.85 in 10.0 mi SW 9.2 mph - 0.02 in   Overcast
12:15 PM 68.0 °F 67.3 °F 98% 29.86 in 10.0 mi SSW 11.5 mph - N/A   Light Drizzle
12:35 PM 68.2 °F 66.4 °F 94% 29.87 in 10.0 mi SW 9.2 mph - N/A Rain Rain
12:55 PM 68.4 °F 67.1 °F 96% 29.86 in 10.0 mi SW 4.6 mph - N/A   Overcast
1:15 PM 68.2 °F 66.4 °F 94% 29.86 in 10.0 mi SSW 8.1 mph - N/A   Light Drizzle
1:35 PM 69.8 °F 66.2 °F 88% 29.86 in 10.0 mi SSW 10.4 mph 16.1 mph N/A   Overcast
1:55 PM 69.8 °F 64.8 °F 84% 29.85 in 10.0 mi SSW 11.5 mph 21.9 mph N/A   Overcast
2:15 PM 70.0 °F 63.7 °F 80% 29.86 in 10.0 mi SSW 11.5 mph - N/A   Overcast
2:35 PM 70.5 °F 63.7 °F 79% 29.86 in 10.0 mi SW 11.5 mph - N/A   Overcast
2:55 PM 71.1 °F 63.9 °F 78% 29.85 in 10.0 mi SSW 11.5 mph - N/A   Overcast
3:15 PM 71.1 °F 63.0 °F 75% 29.85 in 10.0 mi SW 10.4 mph 16.1 mph N/A   Mostly Cloudy
3:35 PM 72.0 °F 62.8 °F 73% 29.84 in 10.0 mi SW 10.4 mph - N/A   Mostly Cloudy
4:55 PM 73.4 °F 62.1 °F 68% 29.84 in 10.0 mi South 10.4 mph - N/A   Mostly Cloudy
5:15 PM 73.8 °F 60.6 °F 63% 29.84 in 10.0 mi South 11.5 mph - N/A   Scattered Clouds
5:35 PM 74.1 °F 62.2 °F 66% 29.84 in 10.0 mi South 6.9 mph - N/A   Mostly Cloudy
5:55 PM 73.6 °F 62.1 °F 67% 29.84 in 10.0 mi SSW 8.1 mph - N/A   Mostly Cloudy
6:15 PM 72.7 °F 61.5 °F 68% 29.85 in 10.0 mi South 11.5 mph - N/A   Mostly Cloudy
6:35 PM 72.7 °F 61.9 °F 69% 29.85 in 10.0 mi South 10.4 mph - N/A   Mostly Cloudy
6:55 PM 72.1 °F 61.9 °F 70% 29.84 in 10.0 mi South 10.4 mph - N/A   Mostly Cloudy
7:15 PM 72.1 °F 62.1 °F 70% 29.83 in 10.0 mi South 10.4 mph - N/A   Scattered Clouds
7:35 PM 71.6 °F 62.1 °F 72% 29.83 in 10.0 mi South 9.2 mph - N/A   Clear
7:55 PM 70.7 °F 61.7 °F 73% 29.85 in 10.0 mi SSW 9.2 mph - N/A   Scattered Clouds
8:15 PM 70.3 °F 61.7 °F 74% 29.85 in 10.0 mi SSW 8.1 mph 16.1 mph N/A   Mostly Cloudy
8:35 PM 69.3 °F 61.9 °F 77% 29.87 in 10.0 mi West 13.8 mph 20.7 mph N/A   Overcast
8:55 PM 64.8 °F 64.6 °F 99% 29.87 in 10.0 mi West 6.9 mph - N/A Rain Light Rain
9:15 PM 64.8 °F 64.6 °F 99% 29.88 in 10.0 mi WNW 4.6 mph - N/A   Overcast
9:35 PM 64.4 °F 64.4 °F 100% 29.89 in 10.0 mi NW 9.2 mph - N/A   Overcast
9:55 PM 63.3 °F 63.0 °F 99% 29.91 in 10.0 mi NW 12.7 mph 18.4 mph N/A   Overcast
10:15 PM 61.9 °F 61.7 °F 99% 29.92 in 10.0 mi NW 15.0 mph 18.4 mph N/A   Overcast
10:30 PM 60.8 °F 60.6 °F 99% 29.92 in 10.0 mi NW 11.5 mph 18.4 mph N/A   Overcast
10:55 PM 59.7 °F 59.4 °F 99% 29.94 in 7.0 mi NW 9.2 mph - N/A Rain Rain
11:15 PM 59.2 °F 59.0 °F 99% 29.95 in 10.0 mi NW 8.1 mph - N/A   Overcast
11:35 PM 59.0 °F 58.8 °F 99% 29.95 in 10.0 mi NW 13.8 mph 18.4 mph N/A   Overcast
11:55 PM 58.3 °F 58.1 °F 99% 29.96 in 10.0 mi NW 12.7 mph 17.3 mph N/A   Overcast